OBJECT L, 61237

Orbit data source: Space-Track

You're viewing an Uncataloged Satellite

Recently launched and/or uncataloged satellites may have evolving metadata. Metadata may include but not limited to: Owner, Maufacturer, Bus, Motor, and Mission.

OBJECT L, 61237 is a satellite owned by Changzheng H. (CN) in SSO that was launched on Tue, 24 Sep 2024 UTC launched from the Yellow Sea Launch Area, China (YSLA). Unknown objects in Earth's orbit typically refer to objects detected orbiting the Earth but have not yet been identified or cataloged. These objects could be anything from previously untracked satellites, spent rocket stages, debris from satellite collisions, or even natural meteoroids temporarily captured by Earth's gravity.

Loading next visibility...
Identifier
61237, 2024-173L
Orbit
SSO
Last TLE update
20 hours ago
Origin
Manufacturer
Changzheng H.
Mission
Spacecraft
Bus & Motor
Unknown
Mass
500 kg wet, 500 kg dry
Launch date (UTC)
2024-09-24 (9 months ago)
Launch vehicle
Unknown
Launch site
Yellow Sea Launch Area, China (YSLA)
Object type
Unknown
Shape & HBR
Unknown
Radar Cross Section
Large (>1 m²)

Expand to show TLE details & history

TLE from 20 hours ago
0 OBJECT L
1 61237U 24173L   25181.24974813  .00056240  00000-0  47932-3 0  9996
2 61237  97.6503 277.7866 0042771  20.8137 339.4853 15.68143362 43287
Epoch: 2025-06-30T05:59Z
TLE epoch observation values (Epoch: 2025-06-30T05:59:38.238Z)
Latitude
0.00002°
Longitude
-90.68499°
Altitude
340.362 km
Speed
7.72 km/s
True Right ascension
18h 31m 08s
True Declination
0° 00' 00"
Sunlit
Object was in full shadow at epoch
Visualization orbit readout
Latitude
78.88225°
Longitude
133.05809°
Altitude
372.344 km
Speed
7.696 km/s
Apparent Right ascension
02h 57m 28s
Apparent Declination
29° 01' 34"
Sunlit
Object is in daylight
Visualization observer readout
Local Sidereal Time
13:56:07
Azimuth
345.791° N
Elevation
-19.599°
Doppler factor
1
Orbital elements
Apogee altitude
389.951 km
Perigee altitude
332.302 km
Semi-major axis
6,739.263 km
Eccentricity
0.00428
Inclination
97.6503°
RAAN
277.7866°
Arg. of periapsis
20.8137°
True anomaly
Unknown
Mean anomaly
339.4853°
Eccentric anomaly
Unknown
Mean motion
3.92306 °/min
Orbital period
91.77 mins
BSTAR
0.00047932
Loading maneuver chart data...
Loading SW <> Apogee altitude chart data...
Loading historical data...
Loading historical data...
Loading historical data...
Loading historical data...
Loading historical data...
Loading historical data...
Loading historical data...

OBJECT L Visibility forecast

Observer location: undefined°, undefined°

Span
Click to sort rows by Start time (UTC) header in descending order
Start Az.
Max El. time (UTC)
Max El. Az.
Max El.
End time (UTC)
End Az.
4 mins2025-07-01 06:38:00.994Z179.379° S2025-07-01 06:40:00.994Z275.573° WNW41.322°2025-07-01 06:42:00.994Z338.952° N
4 mins2025-07-01 19:19:00.994Z18.936° NNE2025-07-01 19:20:00.994Z37.943° NE42.231°2025-07-01 19:23:00.994Z189.103° SSW
|